Time,TemperatureF,DewpointF,PressureIn,WindDirection,WindDirectionDegrees,WindSpeedMPH,WindSpeedGustMPH,Humidity,HourlyPrecipIn,Conditions,Clouds,dailyrainin,SolarRadiationWatts/m^2,SoftwareType,DateUTC
2013-01-20 00:00:00,38.3,29.7,29.91,SW,215,1.0,8.0,71,0.00,,---,0.00,0.00,VWS V14.01,2013-01-20 05:00:00,
2013-01-20 00:01:00,40.0,30.3,29.94,SW,228,1.0,10.0,68,0.00,,---,0.00,0.00,VWS V14.01,2013-01-20 05:01:00,
2013-01-20 00:03:00,40.0,30.3,29.93,SSW,199,6.0,10.0,68,0.00,,---,0.00,0.00,VWS V14.01,2013-01-20 05:03:00,
2013-01-20 00:08:00,39.8,30.1,29.93,WSW,239,1.0,5.0,68,0.00,,---,0.00,0.00,VWS V14.01,2013-01-20 05:08:00,
2013-01-20 00:13:00,39.7,30.4,29.93,SW,236,2.0,7.0,69,0.00,,---,0.00,0.00,VWS V14.01,2013-01-20 05:13:00,
2013-01-20 00:18:00,39.5,30.2,29.93,SSW,205,4.0,7.0,69,0.00,,---,0.00,0.00,VWS V14.01,2013-01-20 05:18:00,
2013-01-20 00:23:00,39.4,30.1,29.93,SSE,167,3.0,7.0,69,0.00,,---,0.00,0.00,VWS V14.01,2013-01-20 05:23:00,
2013-01-20 00:28:00,39.3,30.0,29.92,SW,217,3.0,7.0,69,0.00,,---,0.00,0.00,VWS V14.01,2013-01-20 05:28:00,
2013-01-20 00:30:00,37.7,29.2,29.91,SW,218,1.0,5.0,71,0.00,,---,0.00,0.00,VWS V14.01,2013-01-20 05:30:00,
2013-01-20 00:33:00,39.1,29.8,29.92,SW,223,0.0,7.0,69,0.00,,---,0.00,0.00,VWS V14.01,2013-01-20 05:33:00,
2013-01-20 00:38:00,38.9,30.0,29.92,South,186,4.0,5.0,70,0.00,,---,0.00,0.00,VWS V14.01,2013-01-20 05:38:00,
2013-01-20 00:43:00,38.8,29.9,29.92,SW,214,3.0,8.0,70,0.00,,---,0.00,0.00,VWS V14.01,2013-01-20 05:43:00,
2013-01-20 00:48:00,38.7,29.8,29.92,SSW,211,0.0,8.0,70,0.00,,---,0.00,0.00,VWS V14.01,2013-01-20 05:48:00,
2013-01-20 00:53:00,38.6,29.7,29.92,SW,215,3.0,8.0,70,0.00,,---,0.00,0.00,VWS V14.01,2013-01-20 05:53:00,
2013-01-20 00:58:00,38.5,29.6,29.91,SW,216,2.0,8.0,70,0.00,,---,0.00,0.00,VWS V14.01,2013-01-20 05:58:00,
2013-01-20 01:00:00,37.0,28.8,29.91,SW,214,4.0,6.0,72,0.00,,---,0.00,0.00,VWS V14.01,2013-01-20 06:00:00,
2013-01-20 01:03:00,38.3,29.7,29.91,SSW,213,1.0,8.0,71,0.00,,---,0.00,0.00,VWS V14.01,2013-01-20 06:03:00,
2013-01-20 01:08:00,38.2,29.3,29.91,SW,231,2.0,4.0,70,0.00,,---,0.00,0.00,VWS V14.01,2013-01-20 06:08:00,
2013-01-20 01:13:00,38.2,29.3,29.91,SW,228,2.0,5.0,70,0.00,,---,0.00,0.00,VWS V14.01,2013-01-20 06:13:00,
2013-01-20 01:18:00,38.1,29.5,29.91,South,183,1.0,5.0,71,0.00,,---,0.00,0.00,VWS V14.01,2013-01-20 06:18:00,
2013-01-20 01:23:00,38.0,29.5,29.91,SSW,211,0.0,5.0,71,0.00,,---,0.00,0.00,VWS V14.01,2013-01-20 06:23:00,
2013-01-20 01:28:00,37.8,29.3,29.91,SSW,210,2.0,5.0,71,0.00,,---,0.00,0.00,VWS V14.01,2013-01-20 06:28:00,
2013-01-20 01:30:00,36.6,28.4,29.90,SW,230,2.0,6.0,72,0.00,,---,0.00,0.00,VWS V14.01,2013-01-20 06:30:00,
2013-01-20 01:34:00,37.7,29.2,29.91,SW,218,0.0,5.0,71,0.00,,---,0.00,0.00,VWS V14.01,2013-01-20 06:34:00,
2013-01-20 01:39:00,37.5,29.0,29.91,SW,215,3.0,5.0,71,0.00,,---,0.00,0.00,VWS V14.01,2013-01-20 06:39:00,
2013-01-20 01:44:00,37.3,29.1,29.91,SSW,198,1.0,6.0,72,0.00,,---,0.00,0.00,VWS V14.01,2013-01-20 06:44:00,
2013-01-20 01:49:00,37.3,29.1,29.91,SSW,205,5.0,6.0,72,0.00,,---,0.00,0.00,VWS V14.01,2013-01-20 06:49:00,
2013-01-20 01:54:00,37.1,28.9,29.91,SW,223,0.0,6.0,72,0.00,,---,0.00,0.00,VWS V14.01,2013-01-20 06:54:00,
2013-01-20 01:59:00,37.1,28.9,29.91,SW,221,1.0,6.0,72,0.00,,---,0.00,0.00,VWS V14.01,2013-01-20 06:59:00,
2013-01-20 02:00:00,35.5,28.0,29.90,SW,231,1.0,5.0,74,0.00,,---,0.00,0.00,VWS V14.01,2013-01-20 07:00:00,
2013-01-20 02:04:00,37.0,28.8,29.91,SW,221,2.0,6.0,72,0.00,,---,0.00,0.00,VWS V14.01,2013-01-20 07:04:00,
2013-01-20 02:09:00,37.0,28.8,29.91,SW,227,3.0,5.0,72,0.00,,---,0.00,0.00,VWS V14.01,2013-01-20 07:09:00,
2013-01-20 02:14:00,36.9,29.1,29.91,SW,228,1.0,5.0,73,0.00,,---,0.00,0.00,VWS V14.01,2013-01-20 07:14:00,
2013-01-20 02:19:00,36.8,28.6,29.91,SW,231,1.0,5.0,72,0.00,,---,0.00,0.00,VWS V14.01,2013-01-20 07:19:00,
2013-01-20 02:24:00,36.8,28.6,29.91,SW,234,2.0,5.0,72,0.00,,---,0.00,0.00,VWS V14.01,2013-01-20 07:24:00,
2013-01-20 02:29:00,36.7,28.9,29.90,SW,225,2.0,6.0,73,0.00,,---,0.00,0.00,VWS V14.01,2013-01-20 07:29:00,
2013-01-20 02:30:00,35.2,28.1,29.88,SW,219,1.0,5.0,75,0.00,,---,0.00,0.00,VWS V14.01,2013-01-20 07:30:00,
2013-01-20 02:34:00,36.6,28.8,29.90,SW,230,0.0,6.0,73,0.00,,---,0.00,0.00,VWS V14.01,2013-01-20 07:34:00,
2013-01-20 02:39:00,36.4,28.6,29.90,SW,226,2.0,3.0,73,0.00,,---,0.00,0.00,VWS V14.01,2013-01-20 07:39:00,
2013-01-20 02:44:00,36.3,28.5,29.90,SW,226,1.0,3.0,73,0.00,,---,0.00,0.00,VWS V14.01,2013-01-20 07:44:00,
2013-01-20 02:49:00,36.0,28.2,29.90,South,188,0.0,4.0,73,0.00,,---,0.00,0.00,VWS V14.01,2013-01-20 07:49:00,
2013-01-20 02:54:00,35.8,28.3,29.90,SW,218,0.0,5.0,74,0.00,,---,0.00,0.00,VWS V14.01,2013-01-20 07:54:00,
2013-01-20 02:59:00,35.6,28.1,29.90,SW,218,1.0,5.0,74,0.00,,---,0.00,0.00,VWS V14.01,2013-01-20 07:59:00,
2013-01-20 03:00:00,34.8,28.0,29.86,SW,236,2.0,6.0,76,0.00,,---,0.00,0.00,VWS V14.01,2013-01-20 08:00:00,
2013-01-20 03:04:00,35.5,28.0,29.90,SW,231,1.0,5.0,74,0.00,,---,0.00,0.00,VWS V14.01,2013-01-20 08:04:00,
2013-01-20 03:09:00,35.5,28.4,29.89,SW,217,1.0,5.0,75,0.00,,---,0.00,0.00,VWS V14.01,2013-01-20 08:09:00,
2013-01-20 03:14:00,35.5,28.4,29.89,SW,219,1.0,5.0,75,0.00,,---,0.00,0.00,VWS V14.01,2013-01-20 08:14:00,
2013-01-20 03:19:00,35.5,28.4,29.89,SW,219,2.0,5.0,75,0.00,,---,0.00,0.00,VWS V14.01,2013-01-20 08:19:00,
2013-01-20 03:24:00,35.5,28.0,29.88,SW,219,1.0,5.0,74,0.00,,---,0.00,0.00,VWS V14.01,2013-01-20 08:24:00,
2013-01-20 03:29:00,35.3,28.2,29.88,SW,219,2.0,5.0,75,0.00,,---,0.00,0.00,VWS V14.01,2013-01-20 08:29:00,
2013-01-20 03:30:00,35.0,28.2,29.85,SW,226,6.0,6.0,76,0.00,,---,0.00,0.00,VWS V14.01,2013-01-20 08:30:00,
2013-01-20 03:34:00,35.2,28.1,29.88,SW,219,1.0,5.0,75,0.00,,---,0.00,0.00,VWS V14.01,2013-01-20 08:34:00,
2013-01-20 03:39:00,35.1,28.0,29.88,SW,230,2.0,4.0,75,0.00,,---,0.00,0.00,VWS V14.01,2013-01-20 08:39:00,
2013-01-20 03:44:00,35.0,27.9,29.88,SW,221,2.0,5.0,75,0.00,,---,0.00,0.00,VWS V14.01,2013-01-20 08:44:00,
2013-01-20 03:49:00,34.9,28.1,29.88,SW,223,3.0,6.0,76,0.00,,---,0.00,0.00,VWS V14.01,2013-01-20 08:49:00,
2013-01-20 03:54:00,34.9,28.1,29.87,SSW,207,1.0,6.0,76,0.00,,---,0.00,0.00,VWS V14.01,2013-01-20 08:54:00,
2013-01-20 03:59:00,34.9,28.1,29.87,SW,230,2.0,6.0,76,0.00,,---,0.00,0.00,VWS V14.01,2013-01-20 08:59:00,
2013-01-20 04:00:00,35.4,28.3,29.85,SSW,209,3.0,6.0,75,0.00,,---,0.00,0.00,VWS V14.01,2013-01-20 09:00:00,
2013-01-20 04:04:00,34.8,28.0,29.86,SW,236,3.0,6.0,76,0.00,,---,0.00,0.00,VWS V14.01,2013-01-20 09:04:00,
2013-01-20 04:09:00,34.7,27.9,29.86,SSW,213,3.0,5.0,76,0.00,,---,0.00,0.00,VWS V14.01,2013-01-20 09:09:00,
2013-01-20 04:14:00,34.8,28.0,29.86,SW,228,1.0,5.0,76,0.00,,---,0.00,0.00,VWS V14.01,2013-01-20 09:14:00,
2013-01-20 04:19:00,34.8,28.0,29.86,SSW,208,6.0,6.0,76,0.00,,---,0.00,0.00,VWS V14.01,2013-01-20 09:19:00,
2013-01-20 04:24:00,34.9,28.1,29.86,SSW,210,1.0,6.0,76,0.00,,---,0.00,0.00,VWS V14.01,2013-01-20 09:24:00,
2013-01-20 04:29:00,35.0,28.2,29.86,SSW,212,1.0,6.0,76,0.00,,---,0.00,0.00,VWS V14.01,2013-01-20 09:29:00,
2013-01-20 04:30:00,35.4,28.3,29.84,SSW,213,3.0,6.0,75,0.00,,---,0.00,0.00,VWS V14.01,2013-01-20 09:30:00,
2013-01-20 04:34:00,35.0,28.2,29.85,SW,226,6.0,6.0,76,0.00,,---,0.00,0.00,VWS V14.01,2013-01-20 09:34:00,
2013-01-20 04:39:00,35.1,28.3,29.85,SW,224,4.0,6.0,76,0.00,,---,0.00,0.00,VWS V14.01,2013-01-20 09:39:00,
2013-01-20 04:44:00,35.1,28.3,29.85,SSW,207,3.0,6.0,76,0.00,,---,0.00,0.00,VWS V14.01,2013-01-20 09:44:00,
2013-01-20 04:49:00,35.2,28.4,29.85,SSW,199,1.0,6.0,76,0.00,,---,0.00,0.00,VWS V14.01,2013-01-20 09:49:00,
2013-01-20 04:54:00,35.3,28.5,29.85,SW,221,4.0,6.0,76,0.00,,---,0.00,0.00,VWS V14.01,2013-01-20 09:54:00,
2013-01-20 04:59:00,35.4,28.3,29.85,SW,217,0.0,6.0,75,0.00,,---,0.00,0.00,VWS V14.01,2013-01-20 09:59:00,
2013-01-20 05:00:00,35.6,28.5,29.83,SW,217,2.0,8.0,75,0.00,,---,0.00,0.00,VWS V14.01,2013-01-20 10:00:00,
2013-01-20 05:04:00,35.4,28.3,29.85,SSW,209,3.0,6.0,75,0.00,,---,0.00,0.00,VWS V14.01,2013-01-20 10:04:00,
2013-01-20 05:09:00,35.4,28.6,29.85,SSW,198,1.0,5.0,76,0.00,,---,0.00,0.00,VWS V14.01,2013-01-20 10:09:00,
2013-01-20 05:14:00,35.3,28.2,29.84,SSW,213,4.0,5.0,75,0.00,,---,0.00,0.00,VWS V14.01,2013-01-20 10:14:00,
2013-01-20 05:19:00,35.3,28.2,29.84,WSW,238,1.0,5.0,75,0.00,,---,0.00,0.00,VWS V14.01,2013-01-20 10:19:00,
2013-01-20 05:24:00,35.3,28.5,29.85,SW,219,3.0,6.0,76,0.00,,---,0.00,0.00,VWS V14.01,2013-01-20 10:24:00,
2013-01-20 05:29:00,35.4,28.6,29.84,SSW,208,2.0,6.0,76,0.00,,---,0.00,0.00,VWS V14.01,2013-01-20 10:29:00,
2013-01-20 05:30:00,35.4,28.3,29.83,South,191,2.0,7.0,75,0.00,,---,0.00,0.00,VWS V14.01,2013-01-20 10:30:00,
2013-01-20 05:34:00,35.4,28.3,29.84,SSW,213,3.0,6.0,75,0.00,,---,0.00,0.00,VWS V14.01,2013-01-20 10:34:00,
2013-01-20 05:39:00,35.5,28.4,29.84,SSW,211,4.0,6.0,75,0.00,,---,0.00,0.00,VWS V14.01,2013-01-20 10:39:00,
2013-01-20 05:44:00,35.4,28.3,29.84,SSW,213,0.0,7.0,75,0.00,,---,0.00,0.00,VWS V14.01,2013-01-20 10:44:00,
2013-01-20 05:49:00,35.4,28.3,29.84,SSW,207,2.0,7.0,75,0.00,,---,0.00,0.00,VWS V14.01,2013-01-20 10:49:00,
2013-01-20 05:54:00,35.5,28.4,29.83,SSW,200,1.0,7.0,75,0.00,,---,0.00,0.00,VWS V14.01,2013-01-20 10:54:00,
2013-01-20 05:59:00,35.6,28.5,29.83,SSW,206,4.0,8.0,75,0.00,,---,0.00,0.00,VWS V14.01,2013-01-20 10:59:00,
2013-01-20 06:00:00,35.5,28.4,29.83,South,189,1.0,9.0,75,0.00,,---,0.00,0.00,VWS V14.01,2013-01-20 11:00:00,
2013-01-20 06:04:00,35.6,28.5,29.83,SW,217,2.0,8.0,75,0.00,,---,0.00,0.00,VWS V14.01,2013-01-20 11:04:00,
2013-01-20 06:09:00,35.7,28.6,29.83,SW,219,1.0,5.0,75,0.00,,---,0.00,0.00,VWS V14.01,2013-01-20 11:09:00,
2013-01-20 06:14:00,35.7,28.6,29.83,SW,215,3.0,5.0,75,0.00,,---,0.00,0.00,VWS V14.01,2013-01-20 11:14:00,
2013-01-20 06:19:00,35.6,28.5,29.83,SSW,209,0.0,7.0,75,0.00,,---,0.00,0.00,VWS V14.01,2013-01-20 11:19:00,
2013-01-20 06:24:00,35.6,28.5,29.83,SW,214,3.0,7.0,75,0.00,,---,0.00,0.00,VWS V14.01,2013-01-20 11:24:00,
2013-01-20 06:29:00,35.5,28.4,29.83,SW,214,3.0,7.0,75,0.00,,---,0.00,0.00,VWS V14.01,2013-01-20 11:29:00,
2013-01-20 06:30:00,35.0,28.2,29.84,SSW,208,0.0,8.0,76,0.00,,---,0.00,7.00,VWS V14.01,2013-01-20 11:30:00,
2013-01-20 06:34:00,35.4,28.3,29.83,South,191,2.0,2.0,75,0.00,,---,0.00,0.00,VWS V14.01,2013-01-20 11:34:00,
2013-01-20 06:39:00,35.3,28.2,29.84,SW,226,2.0,7.0,75,0.00,,---,0.00,0.00,VWS V14.01,2013-01-20 11:39:00,
2013-01-20 06:44:00,35.3,28.2,29.83,SSW,211,3.0,7.0,75,0.00,,---,0.00,0.00,VWS V14.01,2013-01-20 11:44:00,
2013-01-20 06:49:00,35.3,28.2,29.83,SW,223,6.0,9.0,75,0.00,,---,0.00,0.00,VWS V14.01,2013-01-20 11:49:00,
2013-01-20 06:54:00,35.4,28.3,29.84,SSW,207,4.0,9.0,75,0.00,,---,0.00,0.00,VWS V14.01,2013-01-20 11:54:00,
2013-01-20 06:59:00,35.5,28.4,29.83,South,190,3.0,9.0,75,0.00,,---,0.00,0.00,VWS V14.01,2013-01-20 11:59:00,
2013-01-20 07:00:00,35.3,28.8,29.84,SW,229,3.0,8.0,77,0.00,,---,0.00,21.00,VWS V14.01,2013-01-20 12:00:00,
2013-01-20 07:04:00,35.5,28.4,29.83,SSW,194,3.0,3.0,75,0.00,,---,0.00,0.00,VWS V14.01,2013-01-20 12:04:00,
2013-01-20 07:09:00,35.5,28.4,29.84,SSW,197,4.0,6.0,75,0.00,,---,0.00,0.00,VWS V14.01,2013-01-20 12:09:00,
2013-01-20 07:14:00,35.4,28.3,29.84,WSW,244,4.0,6.0,75,0.00,,---,0.00,0.00,VWS V14.01,2013-01-20 12:14:00,
2013-01-20 07:19:00,35.3,28.2,29.84,SW,221,0.0,6.0,75,0.00,,---,0.00,0.00,VWS V14.01,2013-01-20 12:19:00,
2013-01-20 07:24:00,35.2,28.4,29.84,SSW,201,1.0,6.0,76,0.00,,---,0.00,0.00,VWS V14.01,2013-01-20 12:24:00,
2013-01-20 07:29:00,35.1,28.3,29.84,SW,230,2.0,6.0,76,0.00,,---,0.00,5.00,VWS V14.01,2013-01-20 12:29:00,
2013-01-20 07:30:00,36.8,29.3,29.85,SSW,200,2.0,9.0,74,0.00,,---,0.00,30.00,VWS V14.01,2013-01-20 12:30:00,
2013-01-20 07:34:00,35.0,28.2,29.83,SSW,208,1.0,1.0,76,0.00,,---,0.00,7.00,VWS V14.01,2013-01-20 12:34:00,
2013-01-20 07:39:00,35.0,28.2,29.84,SSW,204,3.0,6.0,76,0.00,,---,0.00,11.00,VWS V14.01,2013-01-20 12:39:00,
2013-01-20 07:45:00,35.0,28.2,29.84,SSW,209,4.0,7.0,76,0.00,,---,0.00,12.00,VWS V14.01,2013-01-20 12:45:00,
2013-01-20 07:50:00,34.9,28.1,29.84,SSW,207,3.0,7.0,76,0.00,,---,0.00,14.00,VWS V14.01,2013-01-20 12:50:00,
2013-01-20 07:55:00,34.9,28.4,29.84,South,187,6.0,7.0,77,0.00,,---,0.00,18.00,VWS V14.01,2013-01-20 12:55:00,
2013-01-20 08:00:00,35.1,28.6,29.84,SW,217,3.0,7.0,77,0.00,,---,0.00,19.00,VWS V14.01,2013-01-20 13:00:00,
2013-01-20 08:05:00,35.3,28.8,29.84,SW,231,2.0,6.0,77,0.00,,---,0.00,21.00,VWS V14.01,2013-01-20 13:05:00,
2013-01-20 08:10:00,35.5,28.7,29.84,SW,230,2.0,7.0,76,0.00,,---,0.00,23.00,VWS V14.01,2013-01-20 13:10:00,
2013-01-20 08:15:00,35.7,28.9,29.85,SSW,207,3.0,8.0,76,0.00,,---,0.00,25.00,VWS V14.01,2013-01-20 13:15:00,
2013-01-20 08:20:00,35.9,28.8,29.85,SSW,213,2.0,9.0,75,0.00,,---,0.00,26.00,VWS V14.01,2013-01-20 13:20:00,
2013-01-20 08:25:00,36.2,29.0,29.85,SSW,200,4.0,9.0,75,0.00,,---,0.00,28.00,VWS V14.01,2013-01-20 13:25:00,
2013-01-20 08:30:00,36.5,29.0,29.85,SSW,206,1.0,9.0,74,0.00,,---,0.00,28.00,VWS V14.01,2013-01-20 13:30:00,
2013-01-20 08:35:00,36.8,29.3,29.85,SSW,202,4.0,6.0,74,0.00,,---,0.00,30.00,VWS V14.01,2013-01-20 13:35:00,
2013-01-20 08:40:00,37.2,29.4,29.85,SSW,192,6.0,7.0,73,0.00,,---,0.00,32.00,VWS V14.01,2013-01-20 13:40:00,
2013-01-20 08:45:00,37.5,29.6,29.86,SSE,159,0.0,8.0,73,0.00,,---,0.00,32.00,VWS V14.01,2013-01-20 13:45:00,
2013-01-20 08:50:00,37.9,29.7,29.86,SSW,203,5.0,9.0,72,0.00,,---,0.00,33.00,VWS V14.01,2013-01-20 13:50:00,
2013-01-20 08:55:00,38.3,29.7,29.86,SSW,194,2.0,9.0,71,0.00,,---,0.00,33.00,VWS V14.01,2013-01-20 13:55:00,
2013-01-20 09:00:00,38.7,30.1,29.86,SSW,202,3.0,9.0,71,0.00,,---,0.00,35.00,VWS V14.01,2013-01-20 14:00:00,
2013-01-20 09:05:00,39.1,30.5,29.86,SSW,207,1.0,8.0,71,0.00,,---,0.00,98.00,VWS V14.01,2013-01-20 14:05:00,
2013-01-20 09:10:00,40.0,30.7,29.87,SSW,198,4.0,8.0,69,0.00,,---,0.00,155.00,VWS V14.01,2013-01-20 14:10:00,
2013-01-20 09:15:00,41.2,31.1,29.86,SW,235,2.0,8.0,67,0.00,,---,0.00,181.00,VWS V14.01,2013-01-20 14:15:00,
2013-01-20 09:20:00,41.8,31.3,29.87,SSW,205,5.0,8.0,66,0.00,,---,0.00,202.00,VWS V14.01,2013-01-20 14:20:00,
2013-01-20 09:25:00,42.4,31.5,29.87,SSW,195,5.0,9.0,65,0.00,,---,0.00,230.00,VWS V14.01,2013-01-20 14:25:00,
2013-01-20 09:30:00,43.1,31.8,29.86,SSE,167,4.0,9.0,64,0.00,,---,0.00,253.00,VWS V14.01,2013-01-20 14:30:00,
2013-01-20 09:35:00,43.6,31.9,29.86,SSW,194,6.0,8.0,63,0.00,,---,0.00,269.00,VWS V14.01,2013-01-20 14:35:00,
2013-01-20 09:40:00,44.2,32.0,29.86,South,184,2.0,8.0,62,0.00,,---,0.00,281.00,VWS V14.01,2013-01-20 14:40:00,
2013-01-20 09:45:00,45.0,32.4,29.86,South,186,3.0,8.0,61,0.00,,---,0.00,295.00,VWS V14.01,2013-01-20 14:45:00,
2013-01-20 09:50:00,46.1,33.0,29.86,South,188,2.0,8.0,60,0.00,,---,0.00,308.00,VWS V14.01,2013-01-20 14:50:00,
2013-01-20 09:55:00,48.0,33.5,29.86,South,182,5.0,9.0,57,0.00,,---,0.00,318.00,VWS V14.01,2013-01-20 14:55:00,
2013-01-20 10:00:00,48.7,33.7,29.86,West,263,2.0,9.0,56,0.00,,---,0.00,327.00,VWS V14.01,2013-01-20 15:00:00,
2013-01-20 10:05:00,50.6,34.1,29.86,West,275,11.0,18.0,53,0.00,,---,0.00,338.00,VWS V14.01,2013-01-20 15:05:00,
2013-01-20 10:10:00,51.8,34.3,29.86,West,267,7.0,18.0,51,0.00,,---,0.00,350.00,VWS V14.01,2013-01-20 15:10:00,
2013-01-20 10:15:00,52.4,33.8,29.86,WSW,240,12.0,18.0,49,0.00,,---,0.00,359.00,VWS V14.01,2013-01-20 15:15:00,
2013-01-20 10:20:00,52.8,33.7,29.86,WSW,248,17.0,26.0,48,0.00,,---,0.00,371.00,VWS V14.01,2013-01-20 15:20:00,
2013-01-20 10:25:00,53.1,32.9,29.86,SW,232,6.0,26.0,46,0.00,,---,0.00,378.00,VWS V14.01,2013-01-20 15:25:00,
2013-01-20 10:30:00,53.5,33.2,29.86,West,259,17.0,26.0,46,0.00,,---,0.00,390.00,VWS V14.01,2013-01-20 15:30:00,
2013-01-20 10:35:00,53.6,32.2,29.86,West,269,21.0,27.0,44,0.00,,---,0.00,399.00,VWS V14.01,2013-01-20 15:35:00,
2013-01-20 10:40:00,53.8,31.9,29.86,West,272,9.0,27.0,43,0.00,,---,0.00,408.00,VWS V14.01,2013-01-20 15:40:00,
2013-01-20 10:45:00,54.2,32.8,29.86,West,277,13.0,27.0,44,0.00,,---,0.00,417.00,VWS V14.01,2013-01-20 15:45:00,
2013-01-20 10:50:00,54.1,31.5,29.86,West,275,8.0,33.0,42,0.00,,---,0.00,425.00,VWS V14.01,2013-01-20 15:50:00,
2013-01-20 10:55:00,54.4,32.4,29.86,West,268,9.0,33.0,43,0.00,,---,0.00,432.00,VWS V14.01,2013-01-20 15:55:00,
2013-01-20 11:00:00,54.4,32.4,29.86,WNW,288,14.0,33.0,43,0.00,,---,0.00,441.00,VWS V14.01,2013-01-20 16:00:00,
2013-01-20 11:05:00,54.5,33.0,29.86,WSW,252,14.0,17.0,44,0.00,,---,0.00,446.00,VWS V14.01,2013-01-20 16:05:00,
2013-01-20 11:10:00,54.9,33.4,29.86,WSW,255,10.0,20.0,44,0.00,,---,0.00,454.00,VWS V14.01,2013-01-20 16:10:00,
2013-01-20 11:15:00,54.7,30.9,29.86,West,277,13.0,27.0,40,0.00,,---,0.00,459.00,VWS V14.01,2013-01-20 16:15:00,
2013-01-20 11:20:00,54.6,31.4,29.86,WSW,253,21.0,27.0,41,0.00,,---,0.00,462.00,VWS V14.01,2013-01-20 16:20:00,
2013-01-20 11:25:00,54.4,31.2,29.86,West,269,11.0,27.0,41,0.00,,---,0.00,468.00,VWS V14.01,2013-01-20 16:25:00,
2013-01-20 11:30:00,54.5,30.7,29.86,West,279,8.0,27.0,40,0.00,,---,0.00,475.00,VWS V14.01,2013-01-20 16:30:00,
2013-01-20 11:35:00,54.6,30.8,29.86,West,261,11.0,23.0,40,0.00,,---,0.00,480.00,VWS V14.01,2013-01-20 16:35:00,
2013-01-20 11:40:00,54.6,30.2,29.85,West,266,9.0,25.0,39,0.00,,---,0.00,482.00,VWS V14.01,2013-01-20 16:40:00,
2013-01-20 11:45:00,54.7,30.2,29.86,West,271,13.0,25.0,39,0.00,,---,0.00,489.00,VWS V14.01,2013-01-20 16:45:00,
2013-01-20 11:50:00,54.5,30.1,29.86,West,262,15.0,32.0,39,0.00,,---,0.00,490.00,VWS V14.01,2013-01-20 16:50:00,
2013-01-20 11:55:00,54.6,28.9,29.85,West,278,9.0,32.0,37,0.00,,---,0.00,494.00,VWS V14.01,2013-01-20 16:55:00,
2013-01-20 12:00:00,54.6,28.9,29.85,WNW,284,14.0,32.0,37,0.00,,---,0.00,497.00,VWS V14.01,2013-01-20 17:00:00,
2013-01-20 12:05:00,54.6,28.9,29.84,West,278,11.0,25.0,37,0.00,,---,0.00,501.00,VWS V14.01,2013-01-20 17:05:00,
2013-01-20 12:10:00,54.8,29.0,29.85,West,265,18.0,25.0,37,0.00,,---,0.00,504.00,VWS V14.01,2013-01-20 17:10:00,
2013-01-20 12:15:00,54.8,29.0,29.85,West,267,6.0,25.0,37,0.00,,---,0.00,506.00,VWS V14.01,2013-01-20 17:15:00,
2013-01-20 12:20:00,54.7,28.3,29.85,SW,236,14.0,25.0,36,0.00,,---,0.00,508.00,VWS V14.01,2013-01-20 17:20:00,
2013-01-20 12:25:00,54.6,28.9,29.85,West,279,4.0,25.0,37,0.00,,---,0.00,510.00,VWS V14.01,2013-01-20 17:25:00,
2013-01-20 12:30:00,54.9,29.8,29.85,WSW,257,18.0,25.0,38,0.00,,---,0.00,508.00,VWS V14.01,2013-01-20 17:30:00,
2013-01-20 12:35:00,54.9,29.1,29.84,West,271,8.0,22.0,37,0.00,,---,0.00,508.00,VWS V14.01,2013-01-20 17:35:00,
2013-01-20 12:40:00,54.7,27.6,29.84,West,268,18.0,26.0,35,0.00,,---,0.00,508.00,VWS V14.01,2013-01-20 17:40:00,
2013-01-20 12:45:00,54.6,28.9,29.85,West,267,12.0,26.0,37,0.00,,---,0.00,506.00,VWS V14.01,2013-01-20 17:45:00,
2013-01-20 12:50:00,54.4,28.7,29.84,West,260,18.0,26.0,37,0.00,,---,0.00,504.00,VWS V14.01,2013-01-20 17:50:00,
2013-01-20 12:55:00,54.6,28.2,29.85,West,263,20.0,26.0,36,0.00,,---,0.00,501.00,VWS V14.01,2013-01-20 17:55:00,
2013-01-20 13:00:00,54.4,28.0,29.85,WSW,244,5.0,26.0,36,0.00,,---,0.00,501.00,VWS V14.01,2013-01-20 18:00:00,
2013-01-20 13:05:00,54.6,28.2,29.85,WSW,258,13.0,21.0,36,0.00,,---,0.00,499.00,VWS V14.01,2013-01-20 18:05:00,
2013-01-20 13:10:00,54.5,26.7,29.85,WNW,296,9.0,23.0,34,0.00,,---,0.00,497.00,VWS V14.01,2013-01-20 18:10:00,
2013-01-20 13:16:00,54.5,26.7,29.85,WSW,257,11.0,27.0,34,0.00,,---,0.00,496.00,VWS V14.01,2013-01-20 18:16:00,
2013-01-20 13:21:00,54.7,26.2,29.85,West,259,14.0,27.0,33,0.00,,---,0.00,496.00,VWS V14.01,2013-01-20 18:21:00,
2013-01-20 13:26:00,54.7,25.4,29.86,SW,226,18.0,27.0,32,0.00,,---,0.00,489.00,VWS V14.01,2013-01-20 18:26:00,
2013-01-20 13:30:00,53.1,18.2,29.88,West,276,17.0,27.0,25,0.00,,---,0.00,396.00,VWS V14.01,2013-01-20 18:30:00,
2013-01-20 13:31:00,54.5,22.9,29.86,West,262,16.0,30.0,29,0.00,,---,0.00,487.00,VWS V14.01,2013-01-20 18:31:00,
2013-01-20 13:36:00,54.6,23.0,29.86,WNW,294,8.0,15.0,29,0.00,,---,0.00,480.00,VWS V14.01,2013-01-20 18:36:00,
2013-01-20 13:41:00,54.6,20.4,29.86,West,281,9.0,23.0,26,0.00,,---,0.00,476.00,VWS V14.01,2013-01-20 18:41:00,
2013-01-20 13:46:00,54.5,21.2,29.86,West,275,18.0,28.0,27,0.00,,---,0.00,471.00,VWS V14.01,2013-01-20 18:46:00,
2013-01-20 13:51:00,54.1,18.1,29.86,NW,313,15.0,35.0,24,0.00,,---,0.00,466.00,VWS V14.01,2013-01-20 18:51:00,
2013-01-20 13:56:00,53.8,17.9,29.86,WNW,282,16.0,35.0,24,0.00,,---,0.00,461.00,VWS V14.01,2013-01-20 18:56:00,
2013-01-20 14:00:00,52.2,14.5,29.90,WSW,250,6.0,32.0,22,0.00,,---,0.00,329.00,VWS V14.01,2013-01-20 19:00:00,
2013-01-20 14:01:00,53.6,18.6,29.87,WSW,255,21.0,35.0,25,0.00,,---,0.00,452.00,VWS V14.01,2013-01-20 19:01:00,
2013-01-20 14:06:00,53.5,20.4,29.87,West,276,14.0,21.0,27,0.00,,---,0.00,443.00,VWS V14.01,2013-01-20 19:06:00,
2013-01-20 14:11:00,53.5,17.6,29.87,West,259,8.0,21.0,24,0.00,,---,0.00,436.00,VWS V14.01,2013-01-20 19:11:00,
2013-01-20 14:16:00,53.4,17.5,29.87,NW,321,8.0,24.0,24,0.00,,---,0.00,429.00,VWS V14.01,2013-01-20 19:16:00,
2013-01-20 14:21:00,53.4,16.5,29.87,WNW,302,7.0,26.0,23,0.00,,---,0.00,420.00,VWS V14.01,2013-01-20 19:21:00,
2013-01-20 14:26:00,53.3,17.5,29.88,West,279,13.0,26.0,24,0.00,,---,0.00,411.00,VWS V14.01,2013-01-20 19:26:00,
2013-01-20 14:30:00,51.3,16.7,29.92,NW,323,5.0,26.0,25,0.00,,---,0.00,30.00,VWS V14.01,2013-01-20 19:30:00,
2013-01-20 14:31:00,53.2,17.4,29.88,SW,227,19.0,26.0,24,0.00,,---,0.00,401.00,VWS V14.01,2013-01-20 19:31:00,
2013-01-20 14:36:00,53.0,18.1,29.89,WNW,290,10.0,24.0,25,0.00,,---,0.00,394.00,VWS V14.01,2013-01-20 19:36:00,
2013-01-20 14:41:00,52.8,16.0,29.88,West,275,17.0,24.0,23,0.00,,---,0.00,387.00,VWS V14.01,2013-01-20 19:41:00,
2013-01-20 14:46:00,52.6,15.9,29.88,West,276,10.0,29.0,23,0.00,,---,0.00,376.00,VWS V14.01,2013-01-20 19:46:00,
2013-01-20 14:51:00,52.4,14.7,29.89,WNW,284,11.0,30.0,22,0.00,,---,0.00,366.00,VWS V14.01,2013-01-20 19:51:00,
2013-01-20 14:56:00,52.2,14.5,29.90,West,263,15.0,30.0,22,0.00,,---,0.00,355.00,VWS V14.01,2013-01-20 19:56:00,
2013-01-20 15:00:00,49.9,16.4,29.94,West,281,7.0,21.0,26,0.00,,---,0.00,25.00,VWS V14.01,2013-01-20 20:00:00,
2013-01-20 15:01:00,52.2,14.5,29.90,WNW,283,13.0,32.0,22,0.00,,---,0.00,345.00,VWS V14.01,2013-01-20 20:01:00,
2013-01-20 15:06:00,52.1,14.4,29.90,WNW,286,10.0,23.0,22,0.00,,---,0.00,197.00,VWS V14.01,2013-01-20 20:06:00,
2013-01-20 15:11:00,52.1,14.4,29.91,West,261,9.0,23.0,22,0.00,,---,0.00,33.00,VWS V14.01,2013-01-20 20:11:00,
2013-01-20 15:16:00,51.9,14.3,29.91,WSW,248,14.0,24.0,22,0.00,,---,0.00,32.00,VWS V14.01,2013-01-20 20:16:00,
2013-01-20 15:21:00,51.8,15.2,29.91,WNW,296,7.0,26.0,23,0.00,,---,0.00,30.00,VWS V14.01,2013-01-20 20:21:00,
2013-01-20 15:26:00,51.7,16.1,29.92,West,271,19.0,26.0,24,0.00,,---,0.00,30.00,VWS V14.01,2013-01-20 20:26:00,
2013-01-20 15:30:00,47.8,13.7,29.96,WNW,290,5.0,25.0,25,0.00,,---,0.00,19.00,VWS V14.01,2013-01-20 20:30:00,
2013-01-20 15:31:00,51.4,16.8,29.92,WNW,288,12.0,26.0,25,0.00,,---,0.00,30.00,VWS V14.01,2013-01-20 20:31:00,
2013-01-20 15:36:00,51.2,17.5,29.92,West,272,8.0,9.0,26,0.00,,---,0.00,28.00,VWS V14.01,2013-01-20 20:36:00,
2013-01-20 15:41:00,51.1,16.5,29.92,West,265,14.0,21.0,25,0.00,,---,0.00,28.00,VWS V14.01,2013-01-20 20:41:00,
2013-01-20 15:46:00,50.9,17.2,29.93,WSW,254,11.0,21.0,26,0.00,,---,0.00,30.00,VWS V14.01,2013-01-20 20:46:00,
2013-01-20 15:51:00,50.7,16.2,29.93,WNW,294,8.0,21.0,25,0.00,,---,0.00,26.00,VWS V14.01,2013-01-20 20:51:00,
2013-01-20 15:56:00,50.4,16.8,29.94,NNW,332,10.0,21.0,26,0.00,,---,0.00,26.00,VWS V14.01,2013-01-20 20:56:00,
2013-01-20 16:00:00,46.0,10.3,29.97,WNW,295,9.0,24.0,23,0.00,,---,0.00,9.00,VWS V14.01,2013-01-20 21:00:00,
2013-01-20 16:01:00,50.1,17.4,29.94,West,261,9.0,21.0,27,0.00,,---,0.00,26.00,VWS V14.01,2013-01-20 21:01:00,
2013-01-20 16:06:00,49.9,18.1,29.94,West,278,8.0,13.0,28,0.00,,---,0.00,25.00,VWS V14.01,2013-01-20 21:06:00,
2013-01-20 16:11:00,49.6,16.1,29.94,WNW,287,9.0,21.0,26,0.00,,---,0.00,25.00,VWS V14.01,2013-01-20 21:11:00,
2013-01-20 16:16:00,49.3,15.0,29.95,WNW,288,12.0,21.0,25,0.00,,---,0.00,23.00,VWS V14.01,2013-01-20 21:16:00,
2013-01-20 16:21:00,48.9,14.6,29.96,WNW,302,5.0,25.0,25,0.00,,---,0.00,25.00,VWS V14.01,2013-01-20 21:21:00,
2013-01-20 16:26:00,48.5,14.3,29.95,WNW,296,13.0,25.0,25,0.00,,---,0.00,35.00,VWS V14.01,2013-01-20 21:26:00,
2013-01-20 16:30:00,44.8,10.2,29.99,WNW,297,7.0,19.0,24,0.00,,---,0.00,0.00,VWS V14.01,2013-01-20 21:30:00,
2013-01-20 16:31:00,48.0,12.9,29.97,NW,321,11.0,25.0,24,0.00,,---,0.00,19.00,VWS V14.01,2013-01-20 21:31:00,
2013-01-20 16:37:00,47.6,13.5,29.96,NW,307,14.0,19.0,25,0.00,,---,0.00,18.00,VWS V14.01,2013-01-20 21:37:00,
2013-01-20 16:42:00,47.2,12.3,29.96,NW,306,14.0,19.0,24,0.00,,---,0.00,16.00,VWS V14.01,2013-01-20 21:42:00,
2013-01-20 16:47:00,46.9,11.1,29.97,West,269,11.0,24.0,23,0.00,,---,0.00,14.00,VWS V14.01,2013-01-20 21:47:00,
2013-01-20 16:52:00,46.6,11.8,29.97,WNW,287,10.0,24.0,24,0.00,,---,0.00,12.00,VWS V14.01,2013-01-20 21:52:00,
2013-01-20 16:57:00,46.4,11.6,29.97,West,260,9.0,24.0,24,0.00,,---,0.00,11.00,VWS V14.01,2013-01-20 21:57:00,
2013-01-20 17:00:00,43.7,10.2,30.01,WNW,286,8.0,20.0,25,0.00,,---,0.00,0.00,VWS V14.01,2013-01-20 22:00:00,
2013-01-20 17:02:00,46.1,10.4,29.97,West,266,12.0,24.0,23,0.00,,---,0.00,9.00,VWS V14.01,2013-01-20 22:02:00,
2013-01-20 17:07:00,46.0,10.3,29.98,WSW,255,11.0,12.0,23,0.00,,---,0.00,7.00,VWS V14.01,2013-01-20 22:07:00,
2013-01-20 17:12:00,45.7,11.0,29.97,NW,314,5.0,19.0,24,0.00,,---,0.00,5.00,VWS V14.01,2013-01-20 22:12:00,
2013-01-20 17:17:00,45.5,10.8,29.98,West,271,16.0,19.0,24,0.00,,---,0.00,0.00,VWS V14.01,2013-01-20 22:17:00,
2013-01-20 17:22:00,45.3,10.6,29.98,West,265,12.0,19.0,24,0.00,,---,0.00,0.00,VWS V14.01,2013-01-20 22:22:00,
2013-01-20 17:27:00,45.1,10.5,29.98,West,281,11.0,19.0,24,0.00,,---,0.00,0.00,VWS V14.01,2013-01-20 22:27:00,
2013-01-20 17:30:00,42.9,9.5,30.01,NW,309,8.0,18.0,25,0.00,,---,0.00,0.00,VWS V14.01,2013-01-20 22:30:00,
2013-01-20 17:32:00,44.9,10.3,29.98,SW,236,9.0,19.0,24,0.00,,---,0.00,0.00,VWS V14.01,2013-01-20 22:32:00,
2013-01-20 17:37:00,44.7,10.1,29.99,West,273,10.0,14.0,24,0.00,,---,0.00,0.00,VWS V14.01,2013-01-20 22:37:00,
2013-01-20 17:42:00,44.4,8.9,29.99,NW,318,13.0,20.0,23,0.00,,---,0.00,0.00,VWS V14.01,2013-01-20 22:42:00,
2013-01-20 17:47:00,44.3,9.8,30.00,NW,308,7.0,20.0,24,0.00,,---,0.00,0.00,VWS V14.01,2013-01-20 22:47:00,
2013-01-20 17:52:00,44.1,9.6,30.00,WNW,298,7.0,20.0,24,0.00,,---,0.00,0.00,VWS V14.01,2013-01-20 22:52:00,
2013-01-20 17:57:00,44.0,9.5,30.00,WSW,251,18.0,20.0,24,0.00,,---,0.00,0.00,VWS V14.01,2013-01-20 22:57:00,
2013-01-20 18:00:00,41.7,11.0,30.02,WNW,292,5.0,14.0,28,0.00,,---,0.00,0.00,VWS V14.01,2013-01-20 23:00:00,
2013-01-20 18:02:00,43.8,10.3,30.00,NW,316,10.0,20.0,25,0.00,,---,0.00,0.00,VWS V14.01,2013-01-20 23:02:00,
2013-01-20 18:07:00,43.6,10.1,30.01,WNW,300,6.0,11.0,25,0.00,,---,0.00,0.00,VWS V14.01,2013-01-20 23:07:00,
2013-01-20 18:12:00,43.5,10.0,30.01,SW,225,11.0,16.0,25,0.00,,---,0.00,0.00,VWS V14.01,2013-01-20 23:12:00,
2013-01-20 18:17:00,43.3,9.9,30.01,WNW,292,6.0,16.0,25,0.00,,---,0.00,0.00,VWS V14.01,2013-01-20 23:17:00,
2013-01-20 18:22:00,43.2,9.8,30.01,WNW,285,9.0,18.0,25,0.00,,---,0.00,0.00,VWS V14.01,2013-01-20 23:22:00,
2013-01-20 18:27:00,43.1,9.7,30.01,West,264,7.0,18.0,25,0.00,,---,0.00,0.00,VWS V14.01,2013-01-20 23:27:00,
2013-01-20 18:30:00,40.6,12.4,30.04,NNW,339,7.0,16.0,31,0.00,,---,0.00,0.00,VWS V14.01,2013-01-20 23:30:00,
2013-01-20 18:32:00,43.0,9.6,30.01,West,271,9.0,18.0,25,0.00,,---,0.00,0.00,VWS V14.01,2013-01-20 23:32:00,
2013-01-20 18:37:00,42.8,10.3,30.01,NNW,328,8.0,14.0,26,0.00,,---,0.00,0.00,VWS V14.01,2013-01-20 23:37:00,
2013-01-20 18:42:00,42.7,9.3,30.01,WNW,293,6.0,14.0,25,0.00,,---,0.00,0.00,VWS V14.01,2013-01-20 23:42:00,
2013-01-20 18:47:00,42.5,10.1,30.02,WSW,255,6.0,14.0,26,0.00,,---,0.00,0.00,VWS V14.01,2013-01-20 23:47:00,
2013-01-20 18:52:00,42.3,9.9,30.02,WNW,282,4.0,14.0,26,0.00,,---,0.00,0.00,VWS V14.01,2013-01-20 23:52:00,
2013-01-20 18:57:00,42.1,10.6,30.02,WNW,286,5.0,14.0,27,0.00,,---,0.00,0.00,VWS V14.01,2013-01-20 23:57:00,
2013-01-20 19:00:00,39.8,13.1,30.04,NW,309,6.0,15.0,33,0.00,,---,0.00,0.00,VWS V14.01,2013-01-21 00:00:00,
2013-01-20 19:03:00,41.8,11.1,30.02,WNW,301,5.0,14.0,28,0.00,,---,0.00,0.00,VWS V14.01,2013-01-21 00:03:00,
2013-01-20 19:08:00,41.5,11.6,30.02,West,281,4.0,10.0,29,0.00,,---,0.00,0.00,VWS V14.01,2013-01-21 00:08:00,
2013-01-20 19:13:00,41.3,11.5,30.03,WNW,284,12.0,12.0,29,0.00,,---,0.00,0.00,VWS V14.01,2013-01-21 00:13:00,
2013-01-20 19:18:00,41.1,12.0,30.03,West,275,5.0,12.0,30,0.00,,---,0.00,0.00,VWS V14.01,2013-01-21 00:18:00,
2013-01-20 19:23:00,40.9,11.9,30.03,SW,233,6.0,12.0,30,0.00,,---,0.00,0.00,VWS V14.01,2013-01-21 00:23:00,
2013-01-20 19:28:00,40.7,12.4,30.03,WNW,299,10.0,12.0,31,0.00,,---,0.00,0.00,VWS V14.01,2013-01-21 00:28:00,
2013-01-20 19:30:00,39.8,13.1,30.04,NW,323,10.0,17.0,33,0.00,,---,0.00,0.00,VWS V14.01,2013-01-21 00:30:00,
2013-01-20 19:33:00,40.6,12.4,30.03,West,279,6.0,16.0,31,0.00,,---,0.00,0.00,VWS V14.01,2013-01-21 00:33:00,
2013-01-20 19:38:00,40.5,12.3,30.03,NW,304,5.0,15.0,31,0.00,,---,0.00,0.00,VWS V14.01,2013-01-21 00:38:00,
2013-01-20 19:43:00,40.3,12.8,30.04,NNW,339,6.0,15.0,32,0.00,,---,0.00,0.00,VWS V14.01,2013-01-21 00:43:00,
2013-01-20 19:48:00,40.1,12.6,30.04,WNW,284,6.0,15.0,32,0.00,,---,0.00,0.00,VWS V14.01,2013-01-21 00:48:00,
2013-01-20 19:53:00,40.1,12.6,30.03,West,279,5.0,15.0,32,0.00,,---,0.00,0.00,VWS V14.01,2013-01-21 00:53:00,
2013-01-20 19:58:00,40.0,12.5,30.03,WNW,292,4.0,15.0,32,0.00,,---,0.00,0.00,VWS V14.01,2013-01-21 00:58:00,
2013-01-20 20:00:00,39.2,12.5,30.05,WNW,296,11.0,14.0,33,0.00,,---,0.00,0.00,VWS V14.01,2013-01-21 01:00:00,
2013-01-20 20:03:00,39.9,13.1,30.04,WNW,293,10.0,15.0,33,0.00,,---,0.00,0.00,VWS V14.01,2013-01-21 01:03:00,
2013-01-20 20:08:00,39.7,13.0,30.04,WNW,300,3.0,8.0,33,0.00,,---,0.00,0.00,VWS V14.01,2013-01-21 01:08:00,
2013-01-20 20:13:00,39.7,13.0,30.04,WNW,295,10.0,15.0,33,0.00,,---,0.00,0.00,VWS V14.01,2013-01-21 01:13:00,
2013-01-20 20:18:00,39.8,13.1,30.04,West,277,6.0,15.0,33,0.00,,---,0.00,0.00,VWS V14.01,2013-01-21 01:18:00,
2013-01-20 20:23:00,39.9,13.1,30.04,WNW,301,5.0,15.0,33,0.00,,---,0.00,0.00,VWS V14.01,2013-01-21 01:23:00,
2013-01-20 20:28:00,39.8,13.1,30.05,West,277,7.0,17.0,33,0.00,,---,0.00,0.00,VWS V14.01,2013-01-21 01:28:00,
2013-01-20 20:30:00,38.6,12.7,30.06,North,355,4.0,14.0,34,0.00,,---,0.00,0.00,VWS V14.01,2013-01-21 01:30:00,
2013-01-20 20:33:00,39.8,13.1,30.04,NW,320,5.0,17.0,33,0.00,,---,0.00,0.00,VWS V14.01,2013-01-21 01:33:00,
2013-01-20 20:38:00,39.7,13.0,30.04,NW,315,5.0,13.0,33,0.00,,---,0.00,0.00,VWS V14.01,2013-01-21 01:38:00,
2013-01-20 20:43:00,39.6,13.6,30.04,NW,306,7.0,13.0,34,0.00,,---,0.00,0.00,VWS V14.01,2013-01-21 01:43:00,
2013-01-20 20:48:00,39.3,13.3,30.05,NNW,348,7.0,13.0,34,0.00,,---,0.00,0.00,VWS V14.01,2013-01-21 01:48:00,
2013-01-20 20:53:00,39.3,13.3,30.05,NNW,348,8.0,13.0,34,0.00,,---,0.00,0.00,VWS V14.01,2013-01-21 01:53:00,
2013-01-20 20:59:00,39.2,12.5,30.05,NW,319,5.0,14.0,33,0.00,,---,0.00,0.00,VWS V14.01,2013-01-21 01:59:00,
2013-01-20 21:00:00,36.7,14.1,30.06,ENE,74,1.0,9.0,39,0.00,,---,0.00,0.00,VWS V14.01,2013-01-21 02:00:00,
2013-01-20 21:04:00,39.2,12.5,30.05,West,269,5.0,14.0,33,0.00,,---,0.00,0.00,VWS V14.01,2013-01-21 02:04:00,
2013-01-20 21:09:00,39.1,12.4,30.06,West,260,6.0,14.0,33,0.00,,---,0.00,0.00,VWS V14.01,2013-01-21 02:09:00,
2013-01-20 21:14:00,39.1,11.8,30.05,WNW,296,3.0,14.0,32,0.00,,---,0.00,0.00,VWS V14.01,2013-01-21 02:14:00,
2013-01-20 21:19:00,39.0,12.4,30.06,WNW,298,3.0,14.0,33,0.00,,---,0.00,0.00,VWS V14.01,2013-01-21 02:19:00,
2013-01-20 21:24:00,38.9,12.3,30.06,NW,319,4.0,14.0,33,0.00,,---,0.00,0.00,VWS V14.01,2013-01-21 02:24:00,
2013-01-20 21:29:00,38.7,12.1,30.06,North,5,3.0,14.0,33,0.00,,---,0.00,0.00,VWS V14.01,2013-01-21 02:29:00,
2013-01-20 21:30:00,35.1,15.4,30.07,ENE,76,5.0,8.0,44,0.00,,---,0.00,0.00,VWS V14.01,2013-01-21 02:30:00,
2013-01-20 21:34:00,38.6,12.7,30.06,NW,319,3.0,14.0,34,0.00,,---,0.00,0.00,VWS V14.01,2013-01-21 02:34:00,
2013-01-20 21:39:00,38.4,12.5,30.06,NNE,28,5.0,9.0,34,0.00,,---,0.00,0.00,VWS V14.01,2013-01-21 02:39:00,
2013-01-20 21:44:00,38.2,13.6,30.06,ENE,76,0.0,9.0,36,0.00,,---,0.00,0.00,VWS V14.01,2013-01-21 02:44:00,
2013-01-20 21:49:00,37.9,14.0,30.06,West,264,1.0,9.0,37,0.00,,---,0.00,0.00,VWS V14.01,2013-01-21 02:49:00,
2013-01-20 21:54:00,37.5,14.2,30.06,ENE,69,3.0,9.0,38,0.00,,---,0.00,0.00,VWS V14.01,2013-01-21 02:54:00,
2013-01-20 21:59:00,37.2,14.5,30.06,NE,53,0.0,9.0,39,0.00,,---,0.00,0.00,VWS V14.01,2013-01-21 02:59:00,
2013-01-20 22:00:00,33.6,16.0,30.07,North,11,1.0,9.0,48,0.00,,---,0.00,0.00,VWS V14.01,2013-01-21 03:00:00,
2013-01-20 22:04:00,36.7,14.1,30.06,ENE,74,3.0,9.0,39,0.00,,---,0.00,0.00,VWS V14.01,2013-01-21 03:04:00,
2013-01-20 22:09:00,36.4,13.8,30.06,NE,40,1.0,3.0,39,0.00,,---,0.00,0.00,VWS V14.01,2013-01-21 03:09:00,
2013-01-20 22:14:00,36.1,13.6,30.06,NE,40,0.0,3.0,39,0.00,,---,0.00,0.00,VWS V14.01,2013-01-21 03:14:00,
2013-01-20 22:19:00,36.0,13.5,30.06,NE,42,0.0,3.0,39,0.00,,---,0.00,0.00,VWS V14.01,2013-01-21 03:19:00,
2013-01-20 22:24:00,35.7,13.8,30.07,East,91,0.0,4.0,40,0.00,,---,0.00,0.00,VWS V14.01,2013-01-21 03:24:00,
2013-01-20 22:29:00,35.6,14.2,30.07,East,83,6.0,7.0,41,0.00,,---,0.00,0.00,VWS V14.01,2013-01-21 03:29:00,
2013-01-20 22:30:00,33.6,16.0,30.09,NNW,344,1.0,8.0,48,0.00,,---,0.00,0.00,VWS V14.01,2013-01-21 03:30:00,
2013-01-20 22:34:00,35.1,15.4,30.07,ENE,76,5.0,8.0,44,0.00,,---,0.00,0.00,VWS V14.01,2013-01-21 03:34:00,
2013-01-20 22:39:00,34.7,15.6,30.07,East,79,3.0,9.0,45,0.00,,---,0.00,0.00,VWS V14.01,2013-01-21 03:39:00,
2013-01-20 22:44:00,34.4,15.8,30.06,ESE,103,2.0,9.0,46,0.00,,---,0.00,0.00,VWS V14.01,2013-01-21 03:44:00,
2013-01-20 22:49:00,34.2,15.6,30.07,ENE,65,8.0,9.0,46,0.00,,---,0.00,0.00,VWS V14.01,2013-01-21 03:49:00,
2013-01-20 22:54:00,33.9,16.3,30.07,NNE,24,2.0,9.0,48,0.00,,---,0.00,0.00,VWS V14.01,2013-01-21 03:54:00,
2013-01-20 22:59:00,33.8,16.2,30.07,NE,49,4.0,9.0,48,0.00,,---,0.00,0.00,VWS V14.01,2013-01-21 03:59:00,
2013-01-20 23:00:00,32.5,16.4,30.09,North,5,4.0,7.0,51,0.00,,---,0.00,0.00,VWS V14.01,2013-01-21 04:00:00,
2013-01-20 23:04:00,33.6,16.0,30.08,North,5,1.0,1.0,48,0.00,,---,0.00,0.00,VWS V14.01,2013-01-21 04:04:00,
2013-01-20 23:09:00,33.6,16.0,30.08,NE,36,2.0,8.0,48,0.00,,---,0.00,0.00,VWS V14.01,2013-01-21 04:09:00,
2013-01-20 23:14:00,33.7,16.1,30.08,NNE,17,3.0,8.0,48,0.00,,---,0.00,0.00,VWS V14.01,2013-01-21 04:14:00,
2013-01-20 23:19:00,33.7,15.6,30.08,NNE,15,2.0,8.0,47,0.00,,---,0.00,0.00,VWS V14.01,2013-01-21 04:19:00,
2013-01-20 23:24:00,33.7,15.6,30.08,North,9,1.0,8.0,47,0.00,,---,0.00,0.00,VWS V14.01,2013-01-21 04:24:00,
2013-01-20 23:29:00,33.7,15.6,30.09,NW,324,2.0,8.0,47,0.00,,---,0.00,0.00,VWS V14.01,2013-01-21 04:29:00,
2013-01-20 23:30:00,32.4,15.9,30.09,North,11,0.0,8.0,50,0.00,,---,0.00,0.00,VWS V14.01,2013-01-21 04:30:00,
2013-01-20 23:34:00,33.6,16.0,30.09,NNW,344,2.0,3.0,48,0.00,,---,0.00,0.00,VWS V14.01,2013-01-21 04:34:00,
2013-01-20 23:39:00,33.5,15.9,30.09,NNW,345,1.0,3.0,48,0.00,,---,0.00,0.00,VWS V14.01,2013-01-21 04:39:00,
2013-01-20 23:44:00,33.4,15.8,30.09,NNW,335,1.0,3.0,48,0.00,,---,0.00,0.00,VWS V14.01,2013-01-21 04:44:00,
2013-01-20 23:49:00,33.2,16.1,30.09,NNW,338,2.0,6.0,49,0.00,,---,0.00,0.00,VWS V14.01,2013-01-21 04:49:00,
2013-01-20 23:54:00,32.9,16.3,30.09,NNW,332,1.0,6.0,50,0.00,,---,0.00,0.00,VWS V14.01,2013-01-21 04:54:00,
2013-01-20 23:59:00,32.7,16.1,30.08,NNW,328,5.0,7.0,50,0.00,,---,0.00,0.00,VWS V14.01,2013-01-21 04:59:00,